GW5470 Weather Reports


time (UTC)temp
C
wind
direction
speed
KPH
gust
KPH
rain 1hr
cm
rain 24hr
cm
rain mn
cm
humidity
%
barometer
mb
20260502184837 11 4 6.4 9.7 0.00 0.03 0.03 39 1017.0
20260502184332 12 2 9.7 14.5 0.00 0.03 0.03 41 1017.1
20260502183829 12 220 4.8 6.4 0.00 0.03 0.03 39 1017.2
20260502183325 12 309 9.7 12.9 0.00 0.03 0.03 39 1016.8
20260502182820 11 328 4.8 6.4 0.00 0.03 0.03 46 1016.9
20260502182316 11 344 4.8 6.4 0.00 0.03 0.03 39 1017.1
20260502181813 11 202 1.6 3.2 0.00 0.03 0.03 41 1017.2
20260502181312 12 6 8.0 9.7 0.00 0.03 0.03 38 1017.3
20260502180809 12 244 6.4 6.4 0.00 0.03 0.03 42 1017.2
20260502180306 11 286 4.8 6.4 0.00 0.03 0.03 39 1017.3
20260502170225 12 222 3.2 3.2 0.00 0.03 0.03 41 1017.3
20260502164212 11 284 9.7 11.3 0.00 0.03 0.03 41 1017.8
20260502163708 11 289 3.2 4.8 0.00 0.03 0.03 43 1017.5
20260502163205 11 236 4.8 6.4 0.00 0.03 0.03 44 1017.6
20260502162701 10 338 9.7 12.9 0.00 0.03 0.03 42 1017.7
20260502162158 10 340 9.7 11.3 0.00 0.03 0.03 44 1017.6
20260502161655 11 237 3.2 4.8 0.00 0.03 0.03 45 1017.7
20260502161152 10 287 8.0 11.3 0.00 0.03 0.03 41 1017.9
20260502160650 10 33 9.7 14.5 0.00 0.03 0.03 43 1018.0
20260502160149 10 16 8.0 11.3 0.00 0.03 0.03 45 1017.9
20260502152103 10 293 12.9 20.9 0.00 0.03 0.03 47 1017.8
20260502151600 10 262 6.4 9.7 0.00 0.03 0.03 48 1017.9
20260502151057 10 257 4.8 6.4 0.00 0.03 0.03 51 1017.9
20260502150555 10 222 4.8 4.8 0.00 0.03 0.03 46 1017.9
20260502130439 5 232 1.6 1.6 0.00 0.03 0.03 81 1017.9
20260502123422 3 214 0.0 0.0 0.00 0.03 0.03 96 1017.9
20260502122919 2 223 0.0 0.0 0.00 0.03 0.03 98 1017.9
20260502122415 2 223 0.0 0.0 0.00 0.03 0.03 98 1018.1
20260502121914 2 223 0.0 0.0 0.00 0.03 0.03 99 1018.1
20260502121410 1 223 0.0 0.0 0.00 0.03 0.03 99 1017.8
20260502120908 1 223 0.0 0.0 0.00 0.03 0.03 99 1017.7
20260502120404 0 224 0.0 0.0 0.00 0.03 0.03 99 1018.0
20260502115901 0 223 0.0 0.0 0.00 0.03 0.03 99 1017.8
20260502115358 0 223 0.0 0.0 0.00 0.03 0.03 99 1017.7
20260502114854 0 223 0.0 0.0 0.00 0.03 0.03 99 1017.8
20260502114352 0 224 0.0 0.0 0.00 0.03 0.03 99 1017.8
20260502113848 0 224 0.0 0.0 0.00 0.03 0.03 99 1017.9
20260502113346 0 224 0.0 0.0 0.00 0.03 0.03 99 1017.9
20260502112844 0 223 0.0 0.0 0.00 0.03 0.03 99 1017.8
20260502112341 0 224 0.0 0.0 0.00 0.03 0.03 99 1017.7
20260502111839 0 224 0.0 0.0 0.00 0.03 0.03 99 1017.9
20260502111336 0 224 0.0 0.0 0.00 0.03 0.03 99 1017.7
20260502110834 0 224 0.0 0.0 0.00 0.03 0.03 99 1017.8
20260502110331 0 224 0.0 0.0 0.00 0.03 0.03 99 1017.8
20260502105829 0 224 0.0 0.0 0.00 0.03 0.03 99 1017.7
20260502105325 0 224 0.0 0.0 0.00 0.03 0.03 99 1017.6
20260502104823 0 224 0.0 0.0 0.00 0.03 0.03 99 1017.8
20260502104320 0 224 0.0 0.0 0.00 0.03 0.03 99 1017.8
20260502103818 0 224 0.0 0.0 0.00 0.03 0.03 99 1017.7
20260502103315 0 224 0.0 0.0 0.00 0.03 0.03 99 1017.8
20260502102812 0 224 0.0 0.0 0.00 0.03 0.03 99 1017.8
20260502102308 0 224 0.0 0.0 0.00 0.03 0.03 99 1018.0
20260502101806 0 224 0.0 0.0 0.00 0.03 0.03 99 1018.0
20260502101304 0 224 0.0 0.0 0.00 0.03 0.03 99 1018.0
20260502100802 0 224 0.0 0.0 0.00 0.03 0.03 99 1017.8
20260502100301 0 224 0.0 0.0 0.00 0.03 0.03 99 1017.8
20260502091235 0 224 0.0 0.0 0.00 0.03 0.03 99 1018.0
20260502090732 0 224 0.0 0.0 0.13 0.03 0.03 99 1018.0
20260502090229 0 224 0.0 0.0 0.13 0.03 0.03 99 1018.1
20260502071130 1 223 0.0 0.0 0.00 0.00 0.00 98 1017.3
20260502070627 1 223 0.0 0.0 0.00 0.00 0.00 98 1017.3
20260502070125 1 224 0.0 0.0 0.00 0.00 0.00 98 1017.5
20260502065623 1 224 0.0 0.0 0.00 0.00 0.00 98 1017.6
20260502065120 1 224 0.0 0.0 0.00 0.00 0.00 98 1017.6
20260502064619 1 224 0.0 0.0 0.00 0.00 0.00 98 1017.7
20260502064116 1 224 0.0 0.0 0.00 0.00 0.00 98 1017.7
20260502063614 1 224 0.0 0.0 0.00 0.00 0.00 98 1017.7
20260502063111 1 224 0.0 0.0 0.00 0.00 0.00 98 1017.8
20260502062608 1 224 0.0 0.0 0.00 0.00 0.00 98 1017.8
20260502062106 1 223 0.0 0.0 0.00 0.00 0.00 98 1017.9
20260502061604 1 223 0.0 0.0 0.00 0.00 0.00 98 1017.9
20260502061102 1 223 0.0 0.0 0.00 0.00 0.00 98 1017.9
20260502060601 1 223 0.0 0.0 0.00 0.00 0.00 98 1018.1
20260502060059 2 223 0.0 0.0 0.00 0.00 0.00 98 1018.0
20260502055556 2 223 0.0 0.0 0.00 0.00 0.00 98 1017.9
20260502055054 2 223 0.0 0.0 0.00 0.00 0.00 98 1018.0
20260502054553 2 223 0.0 0.0 0.00 0.00 0.00 98 1018.1
20260502054049 2 223 0.0 0.0 0.00 0.00 0.00 98 1018.2
20260502053547 2 224 0.0 0.0 0.00 0.00 0.00 98 1018.2
20260502053044 2 224 0.0 0.0 0.00 0.00 0.00 98 1018.0
20260502052543 2 223 0.0 0.0 0.00 0.00 0.00 98 1018.0
20260502052040 3 223 0.0 0.0 0.00 0.00 0.00 98 1018.1
20260502051538 3 223 0.0 0.0 0.00 0.00 0.00 98 1018.1
20260502051036 3 223 0.0 0.0 0.00 0.00 0.00 98 1018.0
20260502050531 3 224 0.0 0.0 0.00 0.00 0.00 98 1018.0
20260502050029 4 224 0.0 0.0 0.00 0.00 0.00 98 1017.9
20260502045525 4 193 0.0 0.0 0.00 0.00 0.00 98 1018.1
20260502045023 4 222 0.0 0.0 0.00 0.00 0.00 98 1018.2
20260502044519 4 222 0.0 0.0 0.00 0.00 0.00 98 1018.2
20260502044015 4 221 0.0 0.0 0.00 0.00 0.00 98 1018.2
20260502043513 4 221 0.0 0.0 0.00 0.00 0.00 98 1018.2
20260502043009 3 223 0.0 0.0 0.00 0.00 0.00 98 1018.3
20260502042504 3 222 0.0 1.6 0.00 0.00 0.00 98 1018.3
20260502042002 3 227 0.0 0.0 0.00 0.00 0.00 98 1018.4
20260502041500 3 227 0.0 0.0 0.00 0.00 0.00 98 1018.1
20260502040956 3 227 0.0 0.0 0.00 0.00 0.00 98 1018.3
20260502040453 3 227 0.0 0.0 0.00 0.00 0.00 98 1018.1
20260502035949 3 227 0.0 0.0 0.00 0.13 0.13 98 1018.1
20260502035445 3 228 0.0 0.0 0.00 0.13 0.13 97 1018.0
20260502034944 3 228 0.0 0.0 0.00 0.13 0.13 98 1018.1
20260502034442 3 228 0.0 0.0 0.00 0.13 0.13 97 1017.9
20260502033940 2 227 0.0 0.0 0.00 0.13 0.13 97 1018.1
20260502033437 2 228 0.0 0.0 0.00 0.13 0.13 97 1018.1
20260502032934 2 228 0.0 0.0 0.00 0.13 0.13 97 1018.0
20260502032430 2 227 0.0 0.0 0.00 0.13 0.13 97 1018.2
20260502031927 2 227 0.0 0.0 0.00 0.13 0.13 97 1018.3
20260502031426 2 228 0.0 0.0 0.00 0.13 0.13 97 1018.3
20260502030924 2 227 0.0 0.0 0.00 0.13 0.13 97 1018.2
20260502030422 2 227 0.0 0.0 0.00 0.13 0.13 97 1018.1
20260502025919 2 227 0.0 0.0 0.00 0.13 0.13 97 1018.4
20260502025416 2 228 0.0 0.0 0.00 0.13 0.13 97 1018.3
20260502024914 2 228 0.0 0.0 0.00 0.13 0.13 97 1018.1
20260502024412 2 228 0.0 0.0 0.00 0.13 0.13 96 1018.1
20260502023910 2 227 0.0 0.0 0.00 0.13 0.13 96 1018.0
20260502023407 2 228 0.0 0.0 0.00 0.13 0.13 96 1018.0
20260502022904 2 227 0.0 0.0 0.00 0.13 0.13 96 1018.0
20260502022400 2 227 0.0 0.0 0.00 0.13 0.13 96 1017.9
20260502021857 3 228 0.0 0.0 0.00 0.13 0.13 96 1017.7
20260502021355 3 227 0.0 0.0 0.00 0.13 0.13 96 1017.7
20260502020852 3 227 0.0 0.0 0.00 0.13 0.13 95 1017.4
20260502020350 3 227 0.0 0.0 0.00 0.13 0.13 95 1017.4
20260502015846 3 227 0.0 0.0 0.00 0.13 0.13 95 1017.6
20260502015344 3 227 0.0 0.0 0.00 0.13 0.13 95 1017.4
20260502014841 3 227 0.0 0.0 0.00 0.13 0.13 95 1017.3
20260502014338 3 227 0.0 0.0 0.00 0.13 0.13 95 1017.1
20260502013834 3 227 0.0 0.0 0.00 0.13 0.13 94 1017.2
20260502013330 3 227 0.0 0.0 0.00 0.13 0.13 94 1017.4
20260502012826 4 227 0.0 0.0 0.00 0.13 0.13 94 1017.4
20260502012325 3 227 0.0 0.0 0.00 0.13 0.13 93 1017.3
20260502011821 4 227 0.0 0.0 0.00 0.13 0.13 92 1017.3
20260502011317 4 227 0.0 0.0 0.00 0.13 0.13 92 1017.0
20260502010815 4 227 0.0 0.0 0.00 0.13 0.13 91 1016.7
20260502010311 5 227 0.0 0.0 0.00 0.13 0.13 90 1016.8
20260502005808 5 227 0.0 0.0 0.00 0.13 0.13 90 1016.5
20260502005306 5 228 0.0 0.0 0.00 0.13 0.13 89 1016.6
20260502004803 5 227 0.0 0.0 0.00 0.13 0.13 88 1016.3
20260502004259 5 227 0.0 0.0 0.00 0.13 0.13 87 1016.3
20260502003757 6 227 0.0 0.0 0.00 0.13 0.13 85 1016.3
20260502003254 6 227 0.0 0.0 0.00 0.13 0.13 84 1016.0
20260502002749 7 227 0.0 0.0 0.00 0.13 0.13 81 1016.2
20260502002247 7 234 0.0 1.6 0.00 0.13 0.13 80 1016.1
20260502001744 7 227 0.0 1.6 0.00 0.13 0.13 77 1016.1
20260502001243 7 227 0.0 0.0 0.00 0.13 0.13 75 1015.9
20260502000740 8 216 0.0 0.0 0.00 0.13 0.13 73 1016.1
20260502000240 8 221 0.0 0.0 0.00 0.13 0.13 71 1016.0
20260501235732 8 255 1.6 3.2 0.00 0.13 0.13 69 1015.9
20260501235228 9 201 1.6 3.2 0.00 0.13 0.13 68 1015.8
20260501234724 9 225 0.0 0.0 0.00 0.13 0.13 71 1015.6
20260501234221 9 246 0.0 0.0 0.00 0.13 0.13 68 1015.6
20260501233720 9 235 3.2 3.2 0.00 0.13 0.13 64 1015.6
20260501233218 9 230 1.6 3.2 0.00 0.13 0.13 65 1015.2
20260501232713 10 238 1.6 3.2 0.00 0.13 0.13 64 1015.3
20260501232210 10 355 9.7 11.3 0.00 0.13 0.13 63 1015.3
20260501231708 10 345 3.2 6.4 0.00 0.13 0.13 64 1015.4
20260501231206 10 336 8.0 11.3 0.00 0.13 0.13 63 1015.5
20260501230704 10 341 6.4 9.7 0.00 0.13 0.13 63 1015.3
20260501230202 10 219 3.2 3.2 0.00 0.13 0.13 62 1015.3
20260501225659 10 200 3.2 3.2 0.00 0.13 0.13 64 1015.4
20260501225156 10 229 3.2 3.2 0.00 0.13 0.13 64 1015.3
20260501224652 10 309 6.4 6.4 0.00 0.13 0.13 62 1015.2
20260501224150 10 313 6.4 9.7 0.00 0.13 0.13 63 1015.2
20260501223646 10 187 8.0 11.3 0.00 0.13 0.13 64 1015.1
20260501223142 10 298 6.4 6.4 0.00 0.13 0.13 64 1015.0
20260501222638 11 312 8.0 9.7 0.00 0.13 0.13 63 1014.8
20260501222136 11 12 9.7 12.9 0.00 0.13 0.13 64 1014.8
20260501221633 11 23 6.4 9.7 0.00 0.13 0.13 62 1014.3
20260501221130 11 245 8.0 11.3 0.00 0.13 0.13 60 1014.3
20260501220628 12 294 4.8 9.7 0.00 0.13 0.13 58 1014.4
20260501220125 12 108 3.2 3.2 0.00 0.13 0.13 60 1014.7
20260501215622 13 318 8.0 11.3 0.00 0.13 0.13 61 1014.7
20260501215117 13 228 3.2 4.8 0.00 0.13 0.13 61 1014.4
20260501214612 12 357 9.7 16.1 0.00 0.13 0.13 60 1014.1
20260501214108 12 232 4.8 6.4 0.00 0.13 0.13 58 1013.9
20260501213605 13 312 8.0 11.3 0.00 0.13 0.13 59 1013.9
20260501213101 13 9 1.6 4.8 0.00 0.13 0.13 61 1013.7
20260501212557 12 115 3.2 4.8 0.00 0.13 0.13 62 1013.7
20260501212054 12 287 6.4 11.3 0.00 0.13 0.13 63 1013.5
20260501211551 12 250 8.0 9.7 0.00 0.13 0.13 64 1013.4
20260501211049 12 227 4.8 6.4 0.00 0.13 0.13 65 1013.5
20260501210544 12 216 1.6 3.2 0.00 0.13 0.13 66 1013.4
20260501210042 12 241 6.4 9.7 0.00 0.13 0.13 66 1013.5
20260501205538 12 293 4.8 6.4 0.00 0.13 0.13 68 1013.4
20260501205036 12 175 6.4 9.7 0.00 0.13 0.13 68 1013.2
20260501204532 12 235 4.8 6.4 0.00 0.13 0.13 68 1013.5
20260501204028 12 193 3.2 3.2 0.00 0.13 0.13 72 1013.5
20260501203525 12 250 6.4 6.4 0.00 0.13 0.13 72 1013.5
20260501203023 12 223 0.0 1.6 0.00 0.13 0.13 76 1013.4
20260501202520 12 278 9.7 17.7 0.00 0.13 0.13 73 1013.4
20260501202016 12 229 3.2 6.4 0.00 0.13 0.13 73 1013.4
20260501201513 12 234 1.6 3.2 0.00 0.13 0.13 76 1013.4
20260501201009 12 198 0.0 1.6 0.00 0.13 0.13 79 1013.3
20260501200507 12 237 3.2 3.2 0.00 0.13 0.13 78 1013.5
20260501200004 11 214 1.6 1.6 0.00 0.13 0.13 80 1013.6
20260501195500 11 223 0.0 1.6 0.00 0.13 0.13 82 1013.6
20260501194956 10 207 1.6 1.6 0.00 0.13 0.13 83 1013.8
20260501194452 10 207 1.6 1.6 0.00 0.13 0.13 85 1013.7
20260501193948 10 203 0.0 1.6 0.00 0.13 0.13 83 1013.8
20260501193447 10 230 0.0 0.0 0.00 0.13 0.13 85 1013.8
20260501192944 10 217 1.6 3.2 0.00 0.13 0.13 83 1013.8
20260501192441 10 208 1.6 1.6 0.00 0.13 0.13 83 1013.9
20260501191938 10 227 0.0 0.0 0.00 0.13 0.13 85 1014.0
20260501191435 10 224 0.0 1.6 0.00 0.13 0.13 85 1013.9
20260501190932 10 206 0.0 1.6 0.00 0.13 0.13 86 1013.9
20260501190429 10 183 1.6 1.6 0.00 0.13 0.13 85 1013.9
20260501185928 10 222 1.6 1.6 0.00 0.13 0.13 85 1014.1
20260501185425 10 211 3.2 4.8 0.18 0.13 0.13 84 1013.9